Regional Weather Roundup
Issued by NWS

Home | Current Version | Previous Version | Graphics & Text | Print | Product List | Glossary On
Versions: 1 2 3 4 5 6 7 8 9 10 11 12 13 14 15 16 17 18 19 20 21 22 23 24 25 26 27 28 29 30 31 32 33 34 35 36 37 38 39 40 41 42 43 44 45 46 47 48 49 50
000
ASUS45 KTFX 301804
RWRMT
MONTANA HOURLY WEATHER ROUNDUP
NATIONAL WEATHER SERVICE GREAT FALLS MT
1204 PM MDT THU OCT 30 2014

NOTE: "FAIR" INDICATES FEW OR NO CLOUDS BELOW 12000 FEET WITH NO
SIGNIFICANT WEATHER AND/OR OBSTRUCTIONS TO VISIBILITY.

* THESE STATIONS ARE NOT UNDER NWS QUALITY CONTROL. THEY DO NOT
   REPORT WEATHER SUCH AS PRECIPITATION OR FOG.

MTZ001>007-043-301900-
WEST OF THE DIVIDE
CITY           SKY/WX    TMP DP  RH WIND       PRES   REMARKS
KALISPELL      PTSUNNY   46  43  89 NE5       30.23S
MISSOULA       CLOUDY    45  41  86 CALM      30.24F
BUTTE          PTSUNNY   46  30  54 CALM      30.27F
MULLAN PASS    FOG       36  36 100 S10       30.17F VSB M1/4 WCI  29
* DEER LODGE   PTCLDY    43  34  71 N/A        N/A
* ESSEX        N/A       40  37  89 SE2G7      N/A
* HAMILTON APT CLOUDY    46  37  71 NE1        N/A
* LIBBY APT    CLOUDY    45  41  86 N/A        N/A
* LINCOLN      N/A       40  34  79 W2         N/A
* LOOKOUT PASS N/A       39  39 100 S9         N/A   WCI  33
* POLSON       N/A       42  42 100 NW2        N/A
* RONAN APT    CLOUDY    43  39  86 N/A        N/A
* SEELEY LAKE  N/A       38  37  96 NE1        N/A
* THOMP F APT  CLOUDY    49  29  46 E4         N/A
* YAAK HILL    N/A       46  43  89 SE4        N/A
$$

MTZ008-052>055-301900-
SOUTHWEST MONTANA
CITY           SKY/WX    TMP DP  RH WIND       PRES   REMARKS
BOZEMAN        CLOUDY    46  30  54 CALM      30.29F
DILLON         CLOUDY    46  30  54 SW5       30.28F
W YELLOWSTONE  PTSUNNY   39  30  70 CALM      30.37S
* ENNIS APT    PTSUNNY   52  30  43 S8         N/A
* THREE FORKS  PTSUNNY   43  43 100 N/A        N/A
* BOULDER HILL N/A       41  27  58 S12        N/A
* RAYNOLDS PAS N/A       45  27  49 SE12G18    N/A
* WHITEHALL    N/A       45  31  58 NE2        N/A
* WISE RIVER   N/A       39  33  79 NE2        N/A
$$

MTZ009>010-012-014-046-048-049-054-301900-
EAST SLOPES AND CENTRAL MONTANA
CITY           SKY/WX    TMP DP  RH WIND       PRES   REMARKS
CUT BANK       PTCLDY    50  34  54 SE12      30.24S
GREAT FALLS    PTSUNNY   52  34  50 E6        30.25S
HELENA         PTCLDY    46  36  68 CALM      30.28S
MALMSTROM AFB  PTSUNNY   54  32  43 E9        30.26F
* CONRAD       PTCLDY    46  36  68 NE5        N/A
* DEARBORN     N/A       48  35  61 SE1        N/A
* EAST GLACIER N/A       45  33  63 W6G11      N/A
* MONARCH      N/A       50  27  41 E6         N/A
* SAINT MARY   N/A       47  31  54 W2         N/A
* SWEET GRASS  N/A       47  34  61 S9         N/A
$$

MTZ011-013-016-021-035-040-045-047-050-051-301900-
NORTH CENTRAL MONTANA
CITY           SKY/WX    TMP DP  RH WIND       PRES   REMARKS
HAVRE          CLOUDY    36  34  92 E17       30.32S WCI  26
LEWISTOWN      SUNNY     55  30  39 VRB3      30.29S
* N BAR RANCH  SUNNY     52  30  43 SE10      30.32R
* CHESTER      N/A       50  35  57 E6         N/A
* DENTON       N/A       51  33  50 SE10       N/A
* JUDITH GAP   N/A       49  32  52 S8         N/A
* LOMA         N/A       47  38  71 NE6        N/A
$$

MTZ017>020-022>027-061-062-301900-
NORTHEAST MONTANA
CITY           SKY/WX    TMP DP  RH WIND       PRES   REMARKS
GLASGOW        CLOUDY    37  30  76 E12       30.40R WCI  29
GLENDIVE       CLOUDY    37  30  76 NE7       30.41R WCI  32
JORDAN         SUNNY     36  34  92 E9        30.38R WCI  29
SIDNEY         CLOUDY    37  32  82 N5        30.44S WCI  33
WOLF POINT     CLOUDY    37  30  76 NE7       30.43R WCI  32
* BEAVER HILL  N/A       35  31  85 N1G8       N/A
* LINDSAY DVD  N/A       36  32  85 NE4        N/A
* NAVAJO       N/A       32  29  89 NE6G11     N/A   WCI  26
* PLENTYWOOD A N/A       37 N/A N/A N/A        N/A
* POPLAR APT   N/A       36  30  79 N/A        N/A
$$

MTZ028>042-056>058-301900-
SOUTHCENTRAL AND SOUTHEAST MONTANA
CITY           SKY/WX    TMP DP  RH WIND       PRES   REMARKS
BAKER          CLOUDY    36  30  79 E3        30.39R
LIVINGSTON     PTCLDY    52  28  40 E5        30.30S
MILES CITY     SUNNY     45  34  65 NE9       30.37R
* FORSYTH APT  SUNNY     48  34  59 N/A        N/A
* LAUREL APT   SUNNY     52  27  38 N/A        N/A
* ROUNDUP APT  SUNNY     50  30  46 N/A        N/A
* ALZADA       N/A       52  33  48 W3G8       N/A
* HYSHAM       N/A       53  32  45 NW4        N/A
* LAME DEER    N/A       51  33  50 W4         N/A
* REED POINT   N/A       50  30  46 E6         N/A
* ROSCOE HILL  N/A       49  25  39 E6         N/A
$$

REGIONAL REPORTS...DAKOTAS
CITY           SKY/WX    TMP DP  RH WIND       PRES   REMARKS
WILLISTON      CLOUDY    37  32  82 NE9       30.43R WCI  30
DICKINSON      CLOUDY    37  32  82 NE8       30.37R WCI  31
BEACH          N/A       36  32  85 NE9       30.40R WCI  29
CROSBY         CLOUDY    34  32  92 E9        30.46R WCI  27
TIOGA          FOG       32  32 100 NE8       30.45R WCI  25
BISMARCK       CLOUDY    36  32  85 N8        30.40R WCI  30
GRAND FORKS    CLOUDY    37  25  62 N26G36    30.32R WCI  25
FARGO          CLOUDY    39  34  82 N22       30.28R WCI  29
BUFFALO SD     SUNNY     37  30  76 N8        30.30R WCI  31
RAPID CITY     SUNNY     54  36  51 N15G24    30.33R
$$

REGIONAL REPORTS...WYOMING/IDAHO/WASHINGTON
CITY           SKY/WX    TMP DP  RH WIND       PRES   REMARKS
GILLETTE       SUNNY     54  30  40 W9        30.34S
SHERIDAN       SUNNY     57  30  36 E5        30.34S
CODY           PTSUNNY   50  30  46 CALM      30.32S
YELLOWSTONE LA PTCLDY    45  28  51 VRB3      30.40S
SALMON         PTSUNNY   48  34  59 CALM      30.26F
MULLAN PASS    FOG       36  36 100 S10       30.17S VSB M1/4 WCI  29
SAND POINT     CLOUDY    48  41  77 N16       30.14F
SPOKANE        CLOUDY    48  45  89 NE13      30.08F
$$

REGIONAL REPORTS...ALBERTA
CITY           SKY/WX    TMP DP  RH WIND       PRES   REMARKS
CALGARY        FOG       28  27  96 S10       30.17F VSB 1/2  WCI  19
MEDICINE HAT   CLOUDY    36  34  92 NE9       30.28F WCI  29

$$




USA.gov is the U.S. government's official web portal to all federal, state and local government web resources and services.